Regional Weather Roundup
Issued by NWS

Home | Current Version | Previous Version | Text Only | Print | Product List | Glossary Off
Versions: 1 2 3 4 5 6 7 8 9 10 11 12 13 14 15 16 17 18 19 20 21 22 23 24 25 26 27 28 29 30 31 32 33 34 35 36 37 38 39 40 41 42 43 44 45 46 47 48 49 50

000
ASUS45 KTFX 251604
RWRMT
MONTANA HOURLY WEATHER ROUNDUP
NATIONAL WEATHER SERVICE GREAT FALLS MT
904 AM MST SUN JAN 25 2015

NOTE: "FAIR" INDICATES FEW OR NO CLOUDS BELOW 12000 FEET WITH NO
SIGNIFICANT WEATHER AND/OR OBSTRUCTIONS TO VISIBILITY.

* THESE STATIONS ARE NOT UNDER NWS QUALITY CONTROL. THEY DO NOT
   REPORT WEATHER SUCH AS PRECIPITATION OR FOG.

MTZ001>007-043-251700-
WEST OF THE DIVIDE
CITY           SKY/WX    TMP DP  RH WIND       PRES   REMARKS
KALISPELL      PTCLDY    36  34  92 CALM      30.14R
MISSOULA       FOG       34  34 100 CALM      30.24R VSB M1/4
BUTTE          PTCLDY    32  28  85 CALM      30.24S
MULLAN PASS    PTSUNNY   36  36 100 VRB6      30.23R WCI  31
* ANACONDA     SUNNY     45  34  65 S11        N/A
* ESSEX        N/A       36  36 100 N/A        N/A
* LINCOLN      N/A       42  37  83 SW2G7      N/A
* LOOKOUT PASS N/A       38  38 100 NW3        N/A
* POLSON       N/A       42  37  83 S2G9       N/A
* RONAN APT    PTSUNNY   37  37 100 E5         N/A   WCI  33
* SEELEY LAKE  N/A       31  30  96 S3         N/A
* THOMP F APT  PTSUNNY   25  23  92 NE4G9      N/A
$$

MTZ008-052>055-251700-
SOUTHWEST MONTANA
CITY           SKY/WX    TMP DP  RH WIND       PRES   REMARKS
BOZEMAN        CLOUDY    34  30  85 SE6       30.19S WCI  29
DILLON         PTCLDY    37  28  70 SW17      30.26F WCI  27
* W YELLOWSTON PTSUNNY   27  26  96 N/A        N/A
* THREE FORKS  CLOUDY    41  37  86 N/A        N/A
* BOULDER HILL N/A       45  30  56 S6G12      N/A
* MONIDA PASS  N/A       23  23 100 SE16       N/A   WCI  10
* RAYNOLDS PAS N/A       26   8  46 SE22G27    N/A   WCI  11
* WHITEHALL    N/A       46  33  61 W9G27      N/A
* WISE RIVER   N/A       40  33  76 NW9G24     N/A   WCI  34
$$

MTZ009>010-012-014-046-048-049-054-251700-
EAST SLOPES AND CENTRAL MONTANA
CITY           SKY/WX    TMP DP  RH WIND       PRES   REMARKS
CUT BANK       CLOUDY    48  36  63 W37G47    29.91R
GREAT FALLS    CLOUDY    52  36  55 SW23      29.95R
HELENA         CLOUDY    52  36  55 W12G23    30.14R
MALMSTROM AFB  CLOUDY    50  37  61 SW22      29.97R
* DEARBORN     N/A       55  35  47 S5G17      N/A
* EAST GLACIER N/A       48  32  54 W14G39     N/A
* MONARCH      N/A       48  29  48 W24G31     N/A
* PENDROY      N/A       49  34  56 NW31G46    N/A
* ROGERS PASS  N/A       43  36  76 SE9G30     N/A
* SWEET GRASS  N/A       49  34  56 W29G39     N/A
$$

MTZ011-013-016-021-035-040-045-047-050-051-251700-
NORTH CENTRAL MONTANA
CITY           SKY/WX    TMP DP  RH WIND       PRES   REMARKS
HAVRE          PTCLDY    43  36  76 SW17      29.86F
LEWISTOWN      CLOUDY    41  34  76 SW18      29.96S
* N BAR RANCH  SUNNY     48  32  54 W12       29.96F
* CHESTER      N/A       46  36  68 W11G16     N/A
* DENTON       N/A       43  33  68 SW12       N/A
* GEYSER       N/A       52  32  47 SW20G29    N/A
* JUDITH GAP   N/A       44  37  76 SW26G34    N/A
* LOMA         N/A       40  35  82 W4         N/A
$$

MTZ017>020-022>027-061-062-251700-
NORTHEAST MONTANA
CITY           SKY/WX    TMP DP  RH WIND       PRES   REMARKS
GLASGOW        PTCLDY    32  27  82 SE9       29.92F WCI  24
GLENDIVE       PTCLDY    32  27  82 S5        29.98F WCI  27
JORDAN         PTCLDY    37  30  76 W5        29.92F WCI  33
SIDNEY         PTSUNNY   30  27  89 CALM      30.00F
WOLF POINT     PTCLDY    32  27  82 CALM      29.97S
* BEAVER HILL  N/A       29  25  85 S10        N/A   WCI  20
* CIRCLE       N/A       33  29  85 N/A        N/A
* LINDSAY DVD  N/A       34  26  73 W7         N/A   WCI  28
* NAVAJO       N/A       31  27  85 SW11       N/A   WCI  22
* SACO         N/A       29  26  89 NE8        N/A   WCI  21
$$

MTZ028>042-056>058-251700-
SOUTHCENTRAL AND SOUTHEAST MONTANA
CITY           SKY/WX    TMP DP  RH WIND       PRES   REMARKS
BAKER          SUNNY     32  25  75 W8        29.98F WCI  25
BILLINGS       CLOUDY    41  28  60 SW21      30.03R
LIVINGSTON     CLOUDY    48  28  46 SW31G45   30.11F
MILES CITY     PTSUNNY   32  28  85 SE10      29.98F WCI  24
* LAUREL APT   CLOUDY    39  21  48 SW14G20    N/A   WCI  31
* ROUNDUP APT  CLOUDY    46  34  63 SW11G17    N/A
* ALZADA       N/A       34  28  79 SW7        N/A   WCI  28
* HYSHAM       N/A       41  30  65 W8         N/A
* LAME DEER    N/A       41  31  68 W8         N/A
* REED POINT   N/A       54  34  47 W12G24     N/A
* ROSCOE HILL  N/A       54  21  27 W9G30      N/A
$$

REGIONAL REPORTS...DAKOTAS
CITY           SKY/WX    TMP DP  RH WIND       PRES   REMARKS
WILLISTON      CLOUDY    34  28  79 SW6       29.98F WCI  29
DICKINSON      CLOUDY    34  28  79 W12       29.96S WCI  25
CROSBY         CLOUDY    28  28 100 SW7       29.96S WCI  21
WATFORD CITY   CLOUDY    32  32 100 W6        29.96F WCI  26
BISMARCK       CLOUDY    36  32  85 NW6       30.01R WCI  31
GRAND FORKS    PTCLDY    16   9  74 CALM      30.05S
FARGO          SUNNY     19  12  74 N9        30.03F WCI   8
BUFFALO SD     PTCLDY    32  27  82 W7        29.94F WCI  25
RAPID CITY     SUNNY     36  23  59 VRB6      30.05R WCI  31
$$

REGIONAL REPORTS...WYOMING/IDAHO/WASHINGTON
CITY           SKY/WX    TMP DP  RH WIND       PRES   REMARKS
GILLETTE       CLOUDY    37  30  76 SW7       30.06F WCI  32
SHERIDAN       PTSUNNY   36  30  79 S7        30.05S WCI  30
CODY           CLOUDY    50  27  41 W13G25    30.09F
YELLOWSTONE LA PTSUNNY   25  23  92 CALM      30.38R
SALMON         PTCLDY    21  19  92 NW5       30.40S WCI  14
MULLAN PASS    PTSUNNY   36  36 100 VRB6      30.23S WCI  31
SAND POINT     FOG       43  43 100 SW6       30.22S VSB 2
SPOKANE        PTSUNNY   43  41  93 S6        30.22S
$$

REGIONAL REPORTS...SASKATCHEWAN
CITY           SKY/WX    TMP DP  RH WIND       PRES   REMARKS
REGINA         FOG       25  25 100 SE10      29.91F VSB 3/4  WCI  15

$$




USA.gov is the U.S. government's official web portal to all federal, state and local government web resources and services.